Regional Weather Roundup
Issued by NWS Goodland, KS

Home | Current Version | Previous Version | Text Only | Print | Product List | Glossary Off
Versions: 1 2 3 4 5 6 7 8 9 10 11 12 13 14 15 16 17 18 19 20 21 22 23 24 25 26 27 28 29 30 31 32 33 34 35 36 37 38 39 40 41 42 43 44 45 46 47 48 49 50

000
ASUS43 KGLD 011759
RWRGLD

GOODLAND FORECAST AREA HOURLY WEATHER ROUNDUP
NATIONAL WEATHER SERVICE GOODLAND KS
1100 AM MST SUN MAR 01 2015

...OFFICIAL OBSERVATIONS...

CITY           SKY/WX    TMP DP  RH WIND       PRES   REMARKS
GOODLAND KS    PTSUNNY   27  17  66 N12       30.28R WCI  17
HILL CITY KS   PTSUNNY   29  18  63 N7        30.37R
IMPERIAL NEB     N/A     31  11  43 N9G16     30.31R
MCCOOK NEB     SUNNY     35  13  40 N10       30.33S
AKRON CO       MOSUNNY   26  15  63 N8        30.25R
BURLINGTON CO  MOSUNNY   26  16  65 N12       30.25S WCI  16
LIMON CO       CLOUDY    21  15  78 N15       30.21S WCI   8
$$

...UNOFFICIAL OBSERVATIONS...

CITY           SKY/WX    TMP DP  RH WIND       PRES   REMARKS
COLBY KS       CLOUDY    28  21  74 NW6       30.32S
GOVE KS          N/A     28  32 100 MISG        N/A
LENORA KS        N/A     27  32 100 S7          N/A
NORTON KS      MOSUNNY   30  14  51 W5        30.34R
SHARON SPRINGS   N/A     26  21  81 CALM        N/A
KIT CARSON CO    N/A     25  18  74 MISG        N/A
YUMA CO          N/A     28  14  55 N12         N/A  WCI  18
$$


USA.gov is the U.S. government's official web portal to all federal, state and local government web resources and services.